Weather History for Saranac Lake, NY

Change the Weather History Date:

Monday, February 6, 2012

  Actual Average Record
Temperature  
Mean Temperature 33 °F 13 °F  
Max Temperature 41 °F 26 °F 55 °F (2005)
Min Temperature 24 °F 1 °F -23 °F (1993)
Degree Days  
Heating Degree Days 32 52  
Month to date heating degree days 269 312  
Since 1 July heating degree days 4764 5614  
Moisture  
Dew Point 24 °F    
Average Humidity 65    
Maximum Humidity 85    
Minimum Humidity 45    
Precipitation  
Precipitation 0.00 in 0.06 in 0.42 in (2008)
Month to date precipitation 0.17 0.35  
Year to date precipitation 2.50 2.48  
Sea Level Pressure  
Sea Level Pressure 29.88 in    
Wind  
Wind Speed 12 mph (WSW)    
Max Wind Speed 22 mph    
Max Gust Speed 30 mph    
Visibility 10 miles    
Events      
T = Trace of Precipitation, MM = Missing Value Source: NWS Daily Summary

Daily Weather History Graph

Daily Weather History Graph

Search for Another Location

Airport:

Trip Planner

Search our weather history database for the weather conditions in past years. The results will help you decide how hot, cold, wet, or windy it might be!

Date:

Astronomy

Feb. 06, 2012 Rise Set
Actual Time 7:09 AM EST 5:12 PM EST
Civil Twilight 6:39 AM EST 5:43 PM EST
Nautical Twilight 6:04 AM EST 6:17 PM EST
Astronomical Twilight 5:30 AM EST 6:51 PM EST
Moon 4:12 PM EST (2/6) 6:01 AM EST (2/6)
Length of Visible Light 11h 03m
Length of Day
10h 02m
Waxing Gibbous, 98% of the Moon is Illuminated
Feb 6
Waxing Gibbous
Feb 7
Full
Feb 14
Last Quarter
Feb 21
New
Feb 29
First Quarter

Hourly Weather History & Observations

Time (EST) Temp. Windchill Dew Point Humidity Pressure Visibility Wind Dir Wind Speed Gust Speed Precip Events Conditions
12:51 AM 25.0 °F 16.3 °F 19.0 °F 78% 29.98 in 10.0 mi WSW 8.1 mph 17.3 mph N/A   Mostly Cloudy
1:51 AM 27.0 °F 15.2 °F 21.0 °F 78% 29.96 in 10.0 mi WSW 15.0 mph - N/A   Overcast
2:51 AM 28.0 °F 18.6 °F 21.9 °F 78% 29.95 in 10.0 mi WSW 10.4 mph 19.6 mph N/A   Overcast
3:51 AM 28.0 °F 17.5 °F 23.0 °F 81% 29.94 in 10.0 mi WSW 12.7 mph 23.0 mph N/A   Overcast
4:51 AM 28.9 °F 20.4 °F 24.1 °F 82% 29.92 in 10.0 mi SW 9.2 mph 21.9 mph N/A   Overcast
5:51 AM 28.9 °F 19.8 °F 24.1 °F 82% 29.92 in 10.0 mi WSW 10.4 mph 20.7 mph N/A   Overcast
6:51 AM 28.9 °F 18.6 °F 24.1 °F 82% 29.92 in 10.0 mi WSW 12.7 mph 24.2 mph N/A   Overcast
7:51 AM 28.9 °F 19.8 °F 25.0 °F 85% 29.91 in 9.0 mi WSW 10.4 mph 18.4 mph N/A   Overcast
8:51 AM 30.0 °F 20.5 °F 25.0 °F 82% 29.91 in 10.0 mi SW 11.5 mph 19.6 mph N/A   Overcast
9:30 AM 30.2 °F 19.3 °F 24.8 °F 80% 29.84 in 10.0 mi WSW 15.0 mph 24.2 mph N/A   Overcast
9:51 AM 32.0 °F 19.5 °F 25.0 °F 75% 29.90 in 10.0 mi SW 21.9 mph 27.6 mph N/A   Overcast
10:46 AM 33.8 °F 23.5 °F 24.8 °F 70% 29.82 in 10.0 mi SW 16.1 mph 27.6 mph N/A   Overcast
10:51 AM 33.1 °F 23.9 °F 25.0 °F 72% 29.88 in 10.0 mi SW 12.7 mph 27.6 mph N/A   Mostly Cloudy
11:51 AM 36.0 °F 26.0 °F 25.0 °F 64% 29.86 in 10.0 mi SW 17.3 mph 25.3 mph N/A   Partly Cloudy
12:51 PM 37.0 °F 28.1 °F 25.0 °F 62% 29.83 in 10.0 mi SW 15.0 mph 24.2 mph N/A   Clear
1:51 PM 39.9 °F 30.8 °F 23.0 °F 51% 29.81 in 10.0 mi WSW 18.4 mph 27.6 mph N/A   Clear
2:51 PM 41.0 °F 33.9 °F 21.9 °F 47% 29.79 in 10.0 mi SW 12.7 mph 26.5 mph N/A   Clear
3:51 PM 39.0 °F 31.4 °F 23.0 °F 53% 29.81 in 10.0 mi WSW 12.7 mph 27.6 mph N/A   Clear
4:51 PM 37.0 °F 28.9 °F 24.1 °F 59% 29.83 in 10.0 mi WSW 12.7 mph 24.2 mph N/A   Clear
5:51 PM 35.1 °F 29.3 °F 24.1 °F 64% 29.85 in 10.0 mi WSW 6.9 mph - N/A   Clear
6:51 PM 33.1 °F 24.4 °F 24.1 °F 70% 29.87 in 10.0 mi WSW 11.5 mph 20.7 mph N/A   Clear
7:51 PM 32.0 °F 24.2 °F 24.1 °F 73% 29.88 in 10.0 mi WSW 9.2 mph 18.4 mph N/A   Clear
8:51 PM 30.2 °F 22.6 °F 24.8 °F 80% 29.82 in 10.0 mi WSW 8.1 mph - N/A   Partly Cloudy
9:51 PM 32.0 °F 23.6 °F 26.6 °F 80% 29.82 in 10.0 mi WSW 10.4 mph - N/A   Overcast
10:39 PM 30.2 °F 23.4 °F 26.6 °F 86% 29.83 in 10.0 mi WSW 6.9 mph - N/A   Overcast
10:51 PM 32.0 °F 25.6 °F 27.0 °F 82% 29.88 in 10.0 mi WSW 6.9 mph - N/A   Overcast
11:51 PM 30.9 °F 24.3 °F 25.0 °F 79% 29.89 in 10.0 mi Variable 6.9 mph - N/A   Overcast